Torna al catalogo

RUBIN 2

AttivoRadioamatoreLEO
NORAD 27605·PAYLOAD·🇩🇪 Germany

Lanciato Dec 20, 2002 da Baikonur Cosmodrome

Loading…

Prossimi Passaggi (prossime 24 ore)

TLE

AggiornatoSource: Space-Track

Epoca: Sep 14, 2026, 03:41 UTC

1 27605U 02058A   26257.15408034  .00000344  00000-0  63294-4 0  9991
2 27605  64.5525 216.7933 0075798 246.3873 112.9260 14.79535184277744

Traccia RUBIN 2 in tempo reale con AllMySat

Download on the App Store